Home > Weather > Tegucigalpa > Past weeks

Flag for Honduras Weather for the Past 2 Weeks in Tegucigalpa, Honduras

Now
57 °F

Passing clouds.


Feels Like: 57 °F
Forecast: 55 / 69 °F
Wind: 5 mph from North

Location: Tegucigalpa Airport

Current Time: Feb 10, 2016 at 5:33:04 AM

Latest Report: Feb 10, 2016 at 5:00 AM


Visibility: N/A

Pressure: 30.27 "Hg (26.70 "Hg at 1054m altitude)

Humidity: 82%

Dew point: 52 °F

Location of TegucigalpaLocation

Historic Weather in Tegucigalpa — Graph

°F

Tegucigalpa Temperature Yesterday

Maximum temperature yesterday: 72 °F (at 2:00 PM)
Minimum temperature yesterday: 57 °F (at 7:00 PM)
Average temperature yesterday: 62 °F

High & Low Weather Summary for the Past Weeks

 TemperatureHumidityPressure
High90 °F (Jan 27, 3:00 PM)100% (Jan 26, 5:00 AM)30.30 "Hg (Jan 26, 5:00 AM)
Low55 °F (Jan 26, 5:00 AM)26% (Feb 3, 3:00 PM)29.80 "Hg (Feb 3, 10:00 AM)
Average68 °F76%30.11 "Hg
* Reported Jan 26 5:00 AM — Feb 10 4:00 AM, Tegucigalpa, Weather by CustomWeather, © 2016

Note: Actual official high and low records may vary slightly from our data, if they occured in-between our weather recording intervals... More about our weather records

Advertising

Tegucigalpa Weather History for the Previous 24 Hours

 ConditionsComfort  
Time TempWeatherWind HumidityBarometerVisibility
4:00 AM
Wed, Feb 10
57 °FPassing clouds.5 mph82%30.24 "HgN/A
3:00 AM57 °FPassing clouds.9 mph82%30.24 "HgN/A
2:00 AM55 °FPassing clouds.5 mph88%30.24 "HgN/A
1:00 AM57 °FPassing clouds.9 mph82%30.27 "HgN/A
12:00 AM57 °FPassing clouds.9 mph82%30.27 "HgN/A
11:00 PM
Tue, Feb 9
57 °FPassing clouds.9 mph82%30.30 "HgN/A
10:00 PM57 °FPassing clouds.9 mph82%30.30 "HgN/A
9:00 PM57 °FPassing clouds.7 mph88%30.30 "HgN/A
8:00 PM57 °FPartly cloudy.12 mph88%30.27 "Hg6 mi
7:00 PM57 °FScattered showers. Partly cloudy.9 mph88%30.24 "Hg5 mi
6:00 PM59 °FPassing clouds.9 mph82%30.21 "HgN/A
5:00 PM61 °FBroken clouds.9 mph83%30.18 "HgN/A
4:00 PM64 °FBroken clouds.14 mph73%30.18 "HgN/A
3:00 PM72 °FPartly sunny.14 mph57%30.15 "HgN/A
2:00 PM72 °FPartly sunny.12 mph57%30.18 "HgN/A
1:00 PM70 °FScattered clouds.9 mph60%30.18 "HgN/A
12:00 PM68 °FPartly sunny.12 mph64%30.24 "HgN/A
11:00 AM68 °FPartly sunny.13 mph69%30.27 "HgN/A
10:00 AM63 °FPartly sunny.9 mph83%30.30 "HgN/A
9:00 AM63 °FScattered showers. Partly sunny.12 mph83%30.27 "Hg5 mi
8:00 AM61 °FPartly sunny.9 mph88%30.27 "Hg6 mi
7:00 AM59 °FPartly sunny.9 mph94%30.24 "HgN/A
6:00 AM59 °FPassing clouds.9 mph94%30.21 "HgN/A
5:00 AM59 °FPassing clouds.9 mph94%30.21 "HgN/A
Weather by CustomWeather, © 2016

See weather overviewHow to use our weather pages